[[{"header":{"parameterUnit":"m.s-1","parameterCategory":1,"la1":30.2991,"la2":30.254,"lo1":-89.0895,"lo2":-89.0444,"dx":0.0017,"dy":0.0017,"nx":28,"ny":28,"refTime":"2022-11-18T15:00:00:Z","depth":0,"parameterNumber":2,"parameterNumberName":"U-component_of_WINDS"},"data":[0,0,0,0,0,0,0,0,0,0,0,0,0,0,0,0,0,0,0,0,0,0,0,0,0,0,0,0,0,0,0,0,0,0,0,0,0,0,0,0,0,0,0,0,0,0,0,0,0,0,0,0,0,0,0,0,0,0,-4.3255,-4.3256,0,-4.3347,-4.3348,-4.3349,-4.3218,-4.3214,-4.3209,-4.3205,-4.33,-4.3307,-4.3314,0,0,0,0,0,0,0,0,0,0,0,0,0,-4.2965,-4.2971,-4.3255,-4.3256,-4.3257,-4.3347,-4.3348,-4.335,-4.3219,-4.3213,-4.3208,-4.3202,-4.3298,-4.3306,-4.3314,0,0,0,0,0,0,0,0,0,0,0,0,0,-4.3078,-4.2973,-4.3254,-4.3203,-4.3199,-4.3347,-4.3348,-4.335,-4.322,-4.3213,-4.3206,-4.32,-4.3295,-4.3305,-4.3315,-4.3518,0,0,-4.3347,-4.3351,0,0,0,0,0,0,0,0,-4.3071,-4.3088,-4.3209,-4.3207,-4.3203,-4.3264,-4.3281,-4.3406,-4.3222,-4.3212,-4.3204,-4.3196,-4.3294,-4.3304,-4.3336,-4.3523,-4.3527,-4.3348,-4.3354,-4.3358,-4.3361,0,0,0,0,0,0,0,-4.3064,-4.3084,-4.3291,-4.3211,-4.3207,-4.3175,-4.3183,-4.3304,-4.3291,-4.3213,-4.3203,-4.3216,-4.3291,-4.3327,-4.3338,-4.3528,-4.3347,-4.3357,-4.3363,-4.3367,-4.3885,-4.3893,0,0,0,0,0,0,-4.3062,-4.3078,-4.3288,-4.3294,-4.3118,-4.3186,-4.3195,-4.3251,-4.3289,-4.3288,-4.3222,-4.321,-4.3313,-4.3326,-4.3341,-4.358,-4.3358,-4.3368,-4.3374,-4.3878,-4.3887,-4.3895,0,0,0,0,0,0,-4.3056,-4.3082,-4.3284,-4.3184,-4.3207,-4.3198,-4.3263,-4.3257,-4.3293,-4.3296,-4.3293,-4.3261,-4.3308,-4.3326,-4.3475,-4.3581,-4.3373,-4.3382,-4.3869,-4.3881,-4.3891,-4.4061,0,0,0,0,0,0,-4.3049,-4.3081,-4.3158,-4.3186,-4.3213,-4.3418,-4.3269,-4.3264,-4.3311,-4.3296,-4.3332,-4.3332,-4.3304,-4.346,-4.3485,-4.3592,-4.339,-4.3859,-4.3874,-4.3888,-4.4046,-4.4077,-4.4104,0,0,0,0,0,-4.3039,-4.3202,-4.3162,-4.3188,-4.3309,-4.3424,-4.3439,-4.3403,-4.332,-4.3397,-4.3399,-4.3331,-4.3566,-4.3477,-4.3504,-4.3615,-4.3852,-4.387,-4.3886,-4.4033,-4.4071,-4.4103,0,0,0,0,0,0,-4.3186,-4.3205,-4.3161,-4.3339,-4.3381,-4.3402,-4.3498,-4.3445,-4.3511,-4.3494,-4.3447,-4.3456,-4.3616,-4.363,-4.353,-4.3813,-4.3695,-4.3719,-4.3798,-4.3834,-4.3862,-4.3854,-4.3399,0,0,0,0,0,-4.324,-4.3332,-4.3343,-4.3499,-4.3522,-4.3507,-4.3556,-4.3525,-4.3566,-4.3584,-4.3596,-4.364,-4.3723,-4.3779,-4.3857,-4.4048,-4.4054,-4.4138,-4.4167,-4.419,-4.4211,-4.4312,-4.435,-4.3951,-4.3951,-4.3951,0,0,-4.3351,-4.3372,-4.3433,-4.3529,-4.3558,-4.3654,-4.3523,-4.363,-4.3701,-4.36,-4.3741,-4.3753,-4.3798,-4.3969,-4.4045,-4.3986,-4.4322,-4.4212,-4.4231,-4.4238,-4.4334,-4.4371,-4.4405,-4.3963,-4.3961,-4.3959,0,0,-4.3602,-4.3628,-4.376,-4.3792,-4.3837,-4.3826,-4.3858,-4.3888,-4.3891,-4.4032,-4.3958,-4.4042,-4.4187,-4.4222,-4.4259,-4.4525,-4.4463,-4.4551,-4.4701,-4.4801,-4.4832,-4.4859,-4.4953,-4.4988,-4.4572,-4.4572,-4.4572,0,-4.3733,-4.3876,-4.3834,-4.3947,-4.3991,-4.3904,-4.4038,-4.4071,-4.414,-4.4172,-4.4105,-4.4285,-4.431,-4.4487,-4.4552,-4.4585,-4.462,-4.4546,-4.4831,-4.4858,-4.4883,-4.4972,-4.5008,-4.4582,-4.4581,-4.458,-4.4579,0,-4.4035,-4.4135,-4.4236,-4.4305,-4.436,-4.4483,-4.446,-4.4522,-4.4486,-4.4482,-4.4627,-4.4654,-4.4734,-4.4774,-4.4741,-4.4948,-4.491,-4.4838,-4.4718,-4.4932,-4.5015,-4.5048,-4.4597,-4.4593,-4.459,-4.4588,0,0,-4.4381,-4.4425,-4.4463,-4.4493,-4.4537,-4.4613,-4.4732,-4.4811,-4.4864,-4.4915,-4.5013,-4.5139,-4.5072,-4.5115,-4.5084,-4.5172,-4.538,-4.5089,-4.5089,-4.5141,-4.5609,-4.5661,-4.5701,-4.534,-4.5346,-4.5351,-4.5604,0,-4.463,-4.4835,-4.4802,-4.5,-4.5092,-4.5011,-4.5114,-4.5153,-4.5153,-4.523,-4.523,-4.5319,-4.5226,-4.525,-4.5334,-4.5337,-4.5473,-4.5318,-4.543,-4.5435,-4.542,-4.5745,-4.5801,-4.6038,-4.5636,-4.5642,-4.5646,0,-4.4948,-4.5011,-4.5218,-4.5248,-4.5285,-4.5379,-4.5448,-4.5524,-4.5566,-4.5559,-4.5607,-4.5561,-4.5679,-4.5559,-4.5722,-4.5618,-4.5662,-4.5671,-4.5679,-4.5687,-4.5552,-4.576,-4.6113,-4.6148,-4.5697,-4.5693,-4.5689,0,-4.5178,-4.5314,-4.5456,-4.5484,-4.5523,-4.559,-4.5609,-4.5645,-4.5694,-4.5755,-4.5787,-4.5862,-4.5902,-4.5961,-4.5936,-4.5851,-4.6104,-4.5981,-4.6101,-4.6102,-4.6157,-4.6154,-4.652,-4.6188,-4.6188,-4.6187,-4.6186,0,-4.546,-4.559,-4.5559,-4.5646,-4.5789,-4.575,-4.5893,-4.5903,-4.5935,-4.6022,-4.5958,-4.6041,-4.6004,-4.6085,-4.6067,-4.6204,-4.6223,-4.6221,-4.6214,-4.6226,-4.6226,-4.6253,-4.6235,-4.6197,-4.6194,-4.6193,-4.6191,0,-4.574,-4.5725,-4.5874,-4.5898,-4.5907,-4.6012,-4.6033,-4.6114,-4.6109,-4.6221,-4.6245,-4.6238,-4.633,-4.6311,-4.6413,-4.64,-4.6572,-4.6546,-4.6558,-4.6551,-4.6671,-4.666,-4.7067,-4.7118,-4.6755,-4.6758,-4.6761,0,-4.5919,-4.6017,-4.6053,-4.6106,-4.6131,-4.6219,-4.6269,-4.6234,-4.6289,-4.6345,-4.642,-4.6506,-4.6573,-4.6724,-4.6728,-4.6806,-4.678,-4.6917,-4.6791,-4.68,-4.678,-4.6774,-4.6783,-4.6942,-4.6946,-4.6949,-4.6952,0,-4.624,-4.6228,-4.6302,-4.6376,-4.6437,-4.6493,-4.6542,-4.659,-4.656,-4.6625,-4.6718,-4.6771,-4.6874,-4.6961,-4.7033,-4.7052,-4.6998,-4.6992,-4.7024,-4.7036,-4.7038,-4.7038,-4.6624,-4.6983,-4.698,-4.6977,-4.6976,-4.6974,-4.6474,-4.6557,-4.6595,-4.668,-4.6714,-4.6762,-4.684,-4.6845,-4.6922,-4.7003,-4.6979,-4.7085,-4.7124,-4.7215,-4.7244,-4.7326,-4.7275,-4.7321,-4.7332,-4.7344,-4.7358,-4.7027,-4.734,-4.7339,-4.7338,-4.7337,-4.7336,0,-4.679,-4.681,-4.689,-4.6961,-4.7028,-4.6971,-4.7023,-4.7083,-4.7177,-4.7219,-4.7286,-4.7394,-4.7477,-4.7489,-4.7568,-4.7632,-4.7609,-4.7653,-4.7648,-4.7653,-4.74,-4.7364,-4.7671,-4.7671,-4.7671,-4.7671,-4.767,-4.767,-4.6962,-4.7099,-4.7092,-4.7245,-4.7265,-4.7368,-4.7402,-4.7446,-4.7479,-4.7602,-4.7671,-4.7677,-4.7707,-4.7788,-4.7862,-4.7863,-4.7895,-4.7949,-4.7941,-4.7704,-4.7671,-4.7639,-4.7605,-4.7957,-4.7957,-4.8186,-4.8188,-4.819]},{"header":{"parameterUnit":"m.s-1","parameterCategory":1,"la1":30.2991,"la2":30.254,"lo1":-89.0895,"lo2":-89.0444,"dx":0.0017,"dy":0.0017,"nx":28,"ny":28,"refTime":"2022-11-18T15:00:00:Z","depth":0,"parameterNumber":3,"parameterNumberName":"V-component_of_WINDS"},"data":[0,0,0,0,0,0,0,0,0,0,0,0,0,0,0,0,0,0,0,0,0,0,0,0,0,0,0,0,0,0,0,0,0,0,0,0,0,0,0,0,0,0,0,0,0,0,0,0,0,0,0,0,0,0,0,0,0,0,-3.0479,-3.0478,0,-3.0392,-3.0391,-3.039,-3.0302,-3.03,-3.0299,-3.0298,-3.0207,-3.0206,-3.0204,0,0,0,0,0,0,0,0,0,0,0,0,0,-3.0567,-3.0566,-3.0479,-3.0478,-3.0477,-3.0392,-3.039,-3.0389,-3.0302,-3.03,-3.0299,-3.0298,-3.0207,-3.0206,-3.0204,0,0,0,0,0,0,0,0,0,0,0,0,0,-3.0509,-3.0566,-3.0479,-3.0423,-3.0417,-3.0392,-3.039,-3.0389,-3.0302,-3.03,-3.0299,-3.0297,-3.0208,-3.0206,-3.0204,-3.0227,0,0,-3.0198,-3.0197,0,0,0,0,0,0,0,0,-3.0513,-3.0506,-3.0432,-3.0427,-3.042,-3.0356,-3.0388,-3.0334,-3.0303,-3.0346,-3.0298,-3.0296,-3.0258,-3.0251,-3.0239,-3.0222,-3.0218,-3.0198,-3.0196,-3.0195,-3.0195,0,0,0,0,0,0,0,-3.0517,-3.0509,-3.0444,-3.0431,-3.0424,-3.0401,-3.0391,-3.0377,-3.0313,-3.0342,-3.0335,-3.0326,-3.0254,-3.0241,-3.0236,-3.0217,-3.0198,-3.0196,-3.0195,-3.0194,-3.0212,-3.0214,0,0,0,0,0,0,-3.053,-3.0513,-3.0447,-3.0442,-3.0463,-3.0401,-3.039,-3.0378,-3.0313,-3.0301,-3.0328,-3.0322,-3.0245,-3.0239,-3.0233,-3.0254,-3.0195,-3.0194,-3.0192,-3.021,-3.0213,-3.0214,0,0,0,0,0,0,-3.0532,-3.0525,-3.0451,-3.0476,-3.0465,-3.0401,-3.0389,-3.0377,-3.0364,-3.0302,-3.029,-3.0327,-3.0244,-3.0235,-3.0228,-3.0249,-3.0193,-3.0191,-3.0208,-3.0211,-3.0213,-3.0297,0,0,0,0,0,0,-3.0535,-3.0526,-3.0535,-3.0477,-3.0464,-3.0449,-3.0391,-3.0377,-3.0361,-3.0353,-3.0298,-3.0287,-3.0242,-3.0232,-3.0226,-3.0245,-3.0189,-3.0206,-3.021,-3.0213,-3.0292,-3.0302,-3.0311,0,0,0,0,0,-3.0538,-3.0562,-3.0536,-3.0529,-3.0474,-3.0451,-3.0443,-3.0392,-3.0363,-3.0371,-3.0331,-3.0288,-3.0248,-3.0232,-3.0225,-3.0244,-3.0205,-3.0209,-3.0212,-3.0288,-3.03,-3.0311,0,0,0,0,0,0,-3.0625,-3.0554,-3.0524,-3.053,-3.0497,-3.0436,-3.0445,-3.0406,-3.0381,-3.0374,-3.031,-3.0298,-3.0299,-3.027,-3.0254,-3.0261,-3.022,-3.0223,-3.028,-3.0291,-3.03,-3.0307,-3.0188,0,0,0,0,0,-3.0644,-3.0633,-3.0571,-3.0582,-3.0567,-3.0509,-3.0497,-3.046,-3.0423,-3.0409,-3.0368,-3.0333,-3.0312,-3.03,-3.0277,-3.0287,-3.0273,-3.0296,-3.0306,-3.0314,-3.0317,-3.0318,-3.0328,-3.0227,-3.0227,-3.0227,0,0,-3.0685,-3.0645,-3.0641,-3.0598,-3.0568,-3.0556,-3.0498,-3.0488,-3.0478,-3.0407,-3.0398,-3.0366,-3.0323,-3.0325,-3.0323,-3.0301,-3.0341,-3.0318,-3.0325,-3.0324,-3.0323,-3.0333,-3.0341,-3.0229,-3.0229,-3.0229,0,0,-3.0753,-3.0722,-3.0727,-3.0698,-3.0654,-3.0614,-3.0616,-3.056,-3.0537,-3.0526,-3.0472,-3.0459,-3.0425,-3.0396,-3.0377,-3.0431,-3.0391,-3.0426,-3.0474,-3.0477,-3.0485,-3.0491,-3.051,-3.0518,-3.0429,-3.0429,-3.0429,0,-3.0809,-3.079,-3.0734,-3.0727,-3.0709,-3.0644,-3.0648,-3.0622,-3.0573,-3.0561,-3.0537,-3.0492,-3.0458,-3.0451,-3.0464,-3.0451,-3.0449,-3.0432,-3.0488,-3.0494,-3.05,-3.0517,-3.0524,-3.0433,-3.0433,-3.0432,-3.0432,0,-3.0861,-3.0848,-3.0857,-3.0811,-3.0794,-3.0793,-3.0735,-3.0724,-3.0688,-3.0651,-3.064,-3.0597,-3.0564,-3.056,-3.0524,-3.0547,-3.0534,-3.05,-3.0458,-3.0515,-3.053,-3.0536,-3.044,-3.0438,-3.0437,-3.0436,0,0,-3.0982,-3.0904,-3.0909,-3.0886,-3.0831,-3.082,-3.0815,-3.0783,-3.0774,-3.0741,-3.0735,-3.0706,-3.0673,-3.0652,-3.0612,-3.0614,-3.0659,-3.0579,-3.0577,-3.0595,-3.068,-3.0707,-3.0716,-3.0631,-3.0632,-3.0633,-3.0684,0,-3.1041,-3.1029,-3.0977,-3.098,-3.0967,-3.0903,-3.0898,-3.0864,-3.0828,-3.0811,-3.0771,-3.0752,-3.071,-3.0697,-3.0696,-3.0654,-3.0675,-3.0649,-3.0624,-3.0624,-3.0637,-3.0723,-3.0752,-3.0802,-3.0689,-3.069,-3.0691,0,-3.1108,-3.108,-3.1082,-3.1026,-3.1018,-3.1015,-3.0981,-3.0965,-3.0924,-3.0897,-3.0873,-3.0828,-3.0817,-3.0777,-3.076,-3.0744,-3.073,-3.0708,-3.0708,-3.0704,-3.0661,-3.0722,-3.0816,-3.0824,-3.07,-3.0699,-3.0698,0,-3.1197,-3.1159,-3.1154,-3.1137,-3.1072,-3.1071,-3.1044,-3.1,-3.0984,-3.0953,-3.0941,-3.091,-3.0892,-3.0868,-3.0815,-3.0791,-3.0804,-3.076,-3.0782,-3.0783,-3.0788,-3.0789,-3.0882,-3.0779,-3.0779,-3.0779,-3.0779,0,-3.1268,-3.1271,-3.1193,-3.1191,-3.1192,-3.1132,-3.1134,-3.11,-3.1062,-3.1051,-3.0993,-3.0983,-3.0914,-3.0896,-3.0854,-3.0846,-3.0839,-3.0817,-3.0806,-3.0822,-3.0825,-3.0813,-3.0808,-3.0781,-3.078,-3.078,-3.0779,0,-3.1368,-3.1315,-3.1306,-3.1245,-3.1229,-3.1233,-3.118,-3.1174,-3.1134,-3.1121,-3.1114,-3.1052,-3.1027,-3.0972,-3.0932,-3.0904,-3.0907,-3.0886,-3.0921,-3.0914,-3.0939,-3.0938,-3.1028,-3.1037,-3.0928,-3.0929,-3.093,0,-3.1417,-3.1418,-3.1356,-3.1345,-3.132,-3.1302,-3.1285,-3.1225,-3.1209,-3.116,-3.116,-3.1131,-3.1105,-3.1068,-3.1019,-3.0988,-3.0966,-3.1,-3.0961,-3.0978,-3.0967,-3.0968,-3.0967,-3.1009,-3.1011,-3.1012,-3.1013,0,-3.151,-3.1483,-3.1461,-3.1429,-3.141,-3.1382,-3.1351,-3.1344,-3.1276,-3.1261,-3.1235,-3.1215,-3.1174,-3.1146,-3.1107,-3.1077,-3.1034,-3.1025,-3.1029,-3.1046,-3.1066,-3.1055,-3.0945,-3.1024,-3.1023,-3.1022,-3.1021,-3.1021,-3.1585,-3.1583,-3.1539,-3.1516,-3.1486,-3.1457,-3.1449,-3.1408,-3.1386,-3.1348,-3.1313,-3.1291,-3.1247,-3.119,-3.1163,-3.1143,-3.1122,-3.1127,-3.1128,-3.113,-3.1137,-3.1069,-3.1136,-3.1136,-3.1135,-3.1135,-3.1135,0,-3.1675,-3.1643,-3.1622,-3.158,-3.1562,-3.1522,-3.1485,-3.1471,-3.1453,-3.1416,-3.1391,-3.1361,-3.1332,-3.128,-3.1246,-3.1241,-3.122,-3.1234,-3.1234,-3.1228,-3.1159,-3.1159,-3.1251,-3.1251,-3.1251,-3.1251,-3.1251,-3.1251,-3.172,-3.1714,-3.1682,-3.1659,-3.1627,-3.1605,-3.1587,-3.156,-3.153,-3.1499,-3.1475,-3.1441,-3.1397,-3.136,-3.1332,-3.1317,-3.1307,-3.1328,-3.1307,-3.1244,-3.1233,-3.1222,-3.1222,-3.1326,-3.1326,-3.1377,-3.1377,-3.1378]}]]